Location: Bégole
(43.1574°N, 0.3291°E)
Time: 03:21:10
(UTC+00:00)

Okean O Rocket - Pass Details

Date: 28 January 2023
Orbit: 620 x 643 km, 98.1° (Epoch: 27 March)

Event Time Altitude Azimuth Distance (km) Brightness Sun altitude
Exits shadow 20:25:02 12° 240° (WSW) 1,842 4.4 -36.4°
Maximum altitude 20:26:54 16° 269° (W) 1,667 4.4 -36.7°
Drops below altitude 10° 20:29:33 10° 306° (NW) 2,020 4.8 -37.2°
Sets 20:32:36 0° 329° (NNW) 2,939 5.5 -37.8°
